Regional Weather Roundup
Issued by NWS Newport/Morehead, NC

Current Version | Previous Version | Text Only | Print | Product List | Glossary Off
Versions: 1 2 3 4 5 6 7 8 9 10 11 12 13 14 15 16 17 18 19 20 21 22 23 24 25 26 27 28 29 30 31 32 33 34 35 36 37 38 39 40 41 42 43 44 45 46 47 48 49 50
000 ASUS42 KMHX 191412 RWRMHX WEATHER ROUNDUP FOR EASTERN NORTH CAROLINA NATIONAL WEATHER SERVICE NEWPORT/MOREHEAD CITY NC 900 AM EST THU JAN 19 2017 NOTE: "FAIR" INDICATES FEW OR NO CLOUDS BELOW 12,000 FEET WITH NO SIGNIFICANT WEATHER AND/OR OBSTRUCTIONS TO VISIBILITY NCZ015>017-031-032-045>047-102-103-191500- NORTH COAST CITY SKY/WX TMP DP RH WIND PRES REMARKS EDENTON MOSUNNY 45 40 85 CALM 30.12S ELIZABETH CITY CLOUDY 45 40 82 N5 30.11R KITTY HAWK NOT AVBL MANTEO CLOUDY 46 45 97 N6 30.11R $$ NCZ045>047-081-094-103-104-191500- CENTRAL COAST CITY SKY/WX TMP DP RH WIND PRES REMARKS FRISCO MOSUNNY 49 45 86 N6 30.10R FOG $$ NCZ095-097-098-100-101-191500- SOUTHERN COAST CITY SKY/WX TMP DP RH WIND PRES REMARKS BEAUFORT SUNNY 49 45 86 N6 30.11R CEDAR ISLAND NOT AVBL JACKSONVILLE SUNNY 48 46 93 N5 30.12R PINEY ISLAND SUNNY N/A N/A N/A N7 30.10R WILMINGTON SUNNY 48 45 89 NE7 30.12R $$ NCZ011>013-027>030-043-044-078>080-089-090>093-098-191500- COASTAL PLAIN CITY SKY/WX TMP DP RH WIND PRES REMARKS AHOSKIE N/A 42 37 81 N5 30.13R CLINTON SUNNY 44 40 85 CALM 30.13R ELIZABETHTOWN SUNNY 44 38 80 N5 30.11S GOLDSBORO SUNNY 46 43 90 E6 30.11R GREENVILLE SUNNY 41 41 100 CALM 30.13S HAVELOCK SUNNY 49 44 83 NE7 30.12R KENANSVILLE SUNNY 41 41 100 CALM 30.13R KINSTON NOT AVBL NEW BERN MOSUNNY 45 43 93 N5 30.13R FOG RICHLANDS SUNNY 46 43 89 NE3 30.13R ROCKY MOUNT SUNNY 44 40 85 N5 30.14R WASHINGTON N/A 45 40 83 N5 N/A WHITEVILLE SUNNY 48 42 79 CALM 30.11R $$ AMZ130-135-150-152-154-156-158-170-250-252-270-ANZ085-086-088-633-658-670-191500- MARINE OBSERVATIONS STATION/POSITION TIME TEMP WIND PRES WAVE SWELL AIR SEA DIR/SP/G HT/PER HT/PER (UTC) (F) (DEG/KT/KT) (MB) (FT/S) (FT/S) CHESAPEAKE LIGHT NOT AVBL 64 E VA BEACH 1350 50 58 20/ 14/ 17 1017.9 5/ 8 3/ 8 DUCK 1336 44 45 340/ 9/ 11 1018.5 2 E DUCK 1330 45 N/A 4/ 7 OREGON INLET 1336 47 49 360/ 7/ 9 1018.7 13E OREGON INLT NOT AVBL HATTERAS CG 1336 47 54 340/ 11/ 12 1018.8 DIAMOND BUOY 1350 52 75 360/ 16/ 21 1018.5 7/10 5/10 CAPE LOOKOUT 1300 47 360/ 9/ 10 1018.5 BEAUFORT LAB 1336 47 50 10/ 6/ 8 1018.5 30 SE NEW RVR IN 1308 55 62 30/ 12/ 17 1019.1 30 SE NEW RVR IN 1343 62 N/A 4/ 7 27 SE WRIGHTSVLE 1308 56 68 50/ 14/ 19 1018.4 5 SE WRIGHTSVLE 1308 50 30/ 14/ 21 1018.8 225 S CAPE HAT 1250 67 71 360/ 10/ 16 1016.6 8/ 8 8/ 8 41 SE CHARLESTON 1250 69 70 80/ 10/ 12 1015.9 2/ 5 2/ 5 $$

USA.gov is the U.S. government's official web portal to all federal, state and local government web resources and services.